Wind_Speed
6 8 10 12 13 15 16 18 19 20 21 21 21 21 21 20 19 18 16 14 12 11 10 10 11 13 16 19 21 22 23 24 27 29 30 30 30 29 28 28 28 29 28
5 7 9 11 13 15 16 18 19 21 21 21 22 22 21 20 19 18 17 15 13 11 10 9 8 10 12 15 18 20 22 23 25 27 29 29 30 30 29 29 30 30 29
4 6 8 11 13 14 16 18 19 20 21 21 22 22 21 20 19 18 17 16 14 13 11 9 8 7 9 11 14 17 20 22 23 26 28 29 30 31 31 31 31 32 32
3 5 8 10 12 14 16 17 19 20 21 21 22 22 22 21 20 19 18 17 15 13 12 10 8 7 7 9 12 14 17 20 22 24 27 29 30 32 31 33 33 33 32
2 5 8 10 12 14 15 17 18 19 20 21 22 22 22 22 21 20 19 18 16 14 12 11 10 8 7 7 10 12 15 17 20 22 25 27 30 32 32 33 34 34 33
2 5 8 10 12 14 15 16 17 18 19 20 21 22 22 22 21 21 19 19 17 15 13 11 10 9 9 7 8 10 13 15 18 21 23 26 28 31 33 34 34 35 36
2 5 8 10 12 13 15 16 17 18 19 20 21 21 21 21 21 21 20 19 18 17 15 13 12 11 10 9 8 10 12 14 17 19 21 24 27 30 32 34 35 35 36
3 5 8 10 12 13 14 15 16 17 18 19 20 21 21 21 21 21 20 19 19 18 16 15 13 12 11 10 9 9 10 12 15 17 20 23 26 29 31 33 35 36 37
3 6 8 10 12 13 14 15 16 17 18 18 19 20 20 20 20 20 20 20 19 18 17 16 15 14 12 11 10 9 10 12 13 15 18 21 24 27 29 31 34 36 37
4 6 8 10 11 13 13 14 15 16 17 18 19 19 20 20 20 20 20 19 19 19 18 17 16 15 14 12 11 11 11 12 13 15 17 19 21 24 28 30 32 34 37
5 6 8 10 11 12 13 14 15 16 17 18 19 19 20 20 20 20 20 19 19 19 19 18 17 16 15 13 13 12 12 12 12 13 15 17 19 22 25 28 30 33 35
6 7 8 9 11 12 13 14 15 16 16 17 18 19 20 20 20 20 19 19 19 19 19 18 18 17 15 14 14 13 13 12 11 11 12 14 16 18 22 25 27 30 33
7 7 8 9 10 12 13 14 15 16 16 17 19 19 20 20 20 20 19 19 20 20 19 18 18 17 16 15 15 15 14 12 11 10 10 11 13 15 17 21 24 27 29
8 8 8 9 10 12 13 14 15 16 17 18 19 20 20 20 20 20 20 19 19 19 19 19 18 18 17 16 16 15 14 13 11 9 9 10 11 12 14 16 20 23 26
9 8 9 9 10 12 13 14 15 16 17 18 19 20 20 20 20 20 20 19 19 19 19 19 19 18 17 17 16 16 14 13 11 9 9 9 10 10 12 14 16 19 22
10 9 9 10 11 12 13 15 16 16 17 18 19 20 20 20 20 20 20 20 20 19 19 19 19 18 18 17 16 16 15 13 11 10 9 8 9 10 11 13 14 16 19
11 10 10 11 11 12 14 15 16 17 18 18 19 20 20 20 21 21 21 21 20 20 19 19 18 18 18 17 16 16 15 14 12 11 10 9 9 10 11 12 13 15 17
12 12 12 12 12 13 14 15 16 17 18 18 19 20 20 21 21 21 21 21 21 20 19 19 18 18 18 17 16 16 15 14 13 12 11 10 10 10 10 11 13 14 16
14 13 13 13 13 14 15 16 17 17 18 19 20 20 21 22 21 21 21 21 21 20 19 19 18 18 17 17 17 16 15 14 14 13 13 12 11 11 11 11 13 14 15
16 15 15 15 15 15 16 17 17 18 18 19 20 21 22 22 22 22 22 22 21 21 20 19 19 18 18 17 17 16 16 15 14 14 13 13 13 12 12 12 12 13 15
17 17 16 16 16 17 17 18 18 19 19 20 21 22 23 23 23 23 23 22 22 22 21 20 19 19 18 18 17 17 16 16 15 15 14 14 13 13 13 13 13 13 14
19 19 18 18 18 18 18 19 19 20 20 21 22 23 24 24 24 23 23 23 23 22 21 21 20 20 19 19 18 18 17 17 16 16 15 15 15 14 15 15 15 15 15
21 20 20 20 20 20 20 20 20 21 21 22 23 24 24 25 25 24 24 24 23 23 22 21 21 21 21 20 20 19 18 18 17 17 17 16 16 16 17 17 16 16 17
23 23 22 22 22 21 21 21 21 22 23 23 24 25 25 26 26 25 25 25 24 23 23 22 22 22 22 21 21 21 20 20 20 19 19 18 18 18 19 19 19 19 19
25 24 24 24 23 23 23 23 23 23 24 25 26 26 27 27 27 26 26 26 25 24 24 23 23 23 23 22 22 22 22 22 22 22 21 21 21 20 21 21 21 22 22
27 26 26 25 25 24 24 24 25 25 26 26 27 28 28 28 28 28 27 26 26 25 25 25 25 24 24 24 24 24 24 24 24 24 24 24 24 24 24 24 25 25 25
Wind_Direction
19 16 14 14 13 12 11 10 9 8 7 6 4 3 1 360 358 356 354 349 341 330 317 297 273 258 250 243 238 236 235 234 232 230 228 229 230 229 229 229 228 226 225
17 17 16 15 14 13 11 11 10 9 8 7 6 5 3 2 1 360 358 355 351 343 334 321 291 265 254 245 239 236 235 235 232 230 229 229 230 231 230 228 226 225 226
13 18 16 14 14 13 12 12 11 10 10 8 7 7 6 5 4 3 2 2 360 355 347 337 320 286 262 251 243 237 236 236 234 232 230 229 230 231 230 229 228 227 228
11 16 13 12 13 12 11 11 11 10 10 9 8 8 8 8 8 7 5 5 3 0 357 352 342 320 285 262 250 242 240 238 236 234 232 231 232 232 230 229 229 228 228
13 13 11 11 12 11 10 10 9 10 10 10 10 10 10 10 10 9 8 6 4 1 358 356 351 340 318 282 258 249 243 241 239 237 235 233 232 232 231 229 230 229 227
9 8 8 9 9 8 8 7 7 8 9 9 9 9 10 11 11 10 9 8 6 4 360 356 352 346 335 310 277 260 251 246 243 240 238 235 232 232 232 231 231 230 228
356 4 6 7 6 5 5 5 5 6 6 6 6 7 9 9 10 10 9 8 7 6 3 358 352 344 337 323 298 277 265 257 251 247 242 236 234 232 233 233 232 232 230
342 355 1 1 1 1 2 3 3 4 4 4 5 5 6 7 7 8 8 7 6 6 4 1 356 348 340 332 315 294 278 268 260 253 247 241 237 236 234 235 234 233 231
327 345 352 355 357 359 1 2 2 2 3 3 4 4 4 4 4 4 5 6 6 5 3 360 357 353 346 339 328 311 292 278 269 260 252 247 244 240 238 238 236 234 233
314 334 344 350 353 356 358 359 360 0 1 2 2 3 3 2 2 2 3 4 3 4 4 2 358 354 349 343 335 323 306 291 280 269 258 253 249 245 241 240 237 236 235
308 327 338 345 350 353 355 356 357 358 358 359 360 360 0 1 1 1 2 1 0 1 1 1 359 356 351 346 340 331 320 306 292 278 266 258 255 251 246 242 240 237 235
301 317 330 340 347 350 352 353 353 353 355 355 356 357 357 358 358 358 359 358 358 358 358 358 357 355 352 349 345 338 330 320 307 288 273 265 261 256 251 246 243 238 235
290 306 321 333 342 347 349 350 350 351 352 353 353 354 354 354 354 355 355 355 356 356 356 356 355 354 351 348 346 342 336 329 320 304 285 274 268 263 255 249 244 240 236
283 298 313 325 335 341 343 346 348 350 350 351 351 351 352 352 352 351 352 352 353 354 354 354 353 351 349 348 347 345 341 336 330 319 301 287 277 270 262 254 248 243 239
278 292 305 317 327 335 339 341 344 346 348 348 349 349 350 351 352 351 350 350 350 350 351 352 352 350 348 347 347 348 345 341 336 329 316 303 290 281 272 262 254 248 244
274 285 298 310 320 328 334 337 340 341 343 345 346 347 348 349 350 350 349 348 348 348 348 349 349 349 347 346 345 346 345 343 338 333 323 312 301 290 281 267 258 253 249
270 280 292 303 313 321 328 332 335 338 340 342 343 344 345 345 346 347 347 346 345 344 345 346 347 347 347 347 346 345 344 341 335 331 326 318 309 298 286 273 264 259 256
268 277 287 296 305 313 320 326 330 333 336 338 339 341 341 342 342 343 344 344 344 343 343 343 344 344 344 345 345 345 343 341 337 332 327 320 313 307 295 284 277 270 264
267 275 283 290 299 306 312 319 324 327 330 333 335 337 338 339 339 340 341 341 340 340 340 340 341 341 341 341 341 341 340 337 336 332 326 321 316 310 302 293 287 280 273
267 273 279 285 292 299 305 311 317 321 325 329 332 334 334 335 335 336 336 336 336 335 336 335 335 336 336 336 337 336 334 333 332 330 327 323 318 311 306 300 293 288 281
266 271 276 282 288 294 300 305 310 315 320 324 327 330 332 333 332 332 331 332 332 331 331 331 330 331 331 332 332 332 331 328 326 324 322 320 318 313 307 302 296 292 287
266 270 274 279 284 289 294 300 305 310 315 319 323 326 328 329 329 329 328 328 328 327 326 326 325 325 325 326 326 327 326 325 321 318 317 316 314 311 307 303 298 291 287
265 269 273 277 281 285 289 294 300 305 310 314 318 321 324 326 326 326 325 324 324 324 323 322 321 320 319 320 320 320 321 321 319 316 313 311 310 308 306 303 299 295 289
265 268 271 274 277 281 285 290 295 301 306 310 314 317 320 322 323 323 322 321 320 320 319 318 318 316 316 315 315 315 315 315 315 314 311 308 306 304 302 301 298 295 291
264 266 269 271 274 278 282 287 292 298 302 306 310 313 315 318 319 319 319 319 318 316 315 314 314 313 312 311 311 311 311 311 311 310 309 307 303 301 300 298 297 294 292
262 264 266 269 272 276 280 285 290 295 299 303 306 309 311 313 315 316 315 315 314 313 311 311 310 309 308 306 306 306 306 306 306 305 305 304 302 299 297 296 295 293 291
Height
5844 5843 5841 5838 5836 5833 5830 5827 5823 5819 5815 5811 5807 5802 5798 5794 5790 5786 5783 5780 5777 5775 5774 5773 5773 5774 5775 5777 5780 5783 5786 5789 5793 5797 5801 5805 5809 5814 5818 5821 5825 5829 5833
5844 5842 5840 5838 5835 5832 5829 5826 5823 5819 5815 5811 5806 5802 5798 5793 5789 5786 5782 5779 5776 5774 5772 5771 5770 5771 5772 5773 5776 5778 5781 5784 5787 5791 5795 5799 5804 5808 5812 5816 5820 5824 5828
5843 5842 5840 5837 5835 5832 5829 5826 5822 5819 5815 5811 5807 5802 5798 5794 5790 5786 5782 5779 5776 5773 5771 5769 5768 5768 5769 5770 5772 5774 5776 5779 5782 5786 5789 5793 5798 5801 5806 5810 5814 5818 5822
5842 5841 5839 5837 5834 5832 5829 5826 5822 5819 5815 5811 5807 5802 5798 5794 5790 5786 5782 5779 5776 5773 5771 5769 5768 5767 5767 5768 5769 5770 5772 5775 5777 5780 5784 5787 5791 5795 5799 5804 5808 5812 5816
5841 5840 5838 5836 5834 5831 5828 5825 5822 5819 5815 5811 5807 5803 5798 5794 5790 5786 5782 5779 5776 5773 5771 5769 5767 5766 5765 5765 5766 5767 5769 5770 5773 5775 5778 5781 5785 5789 5792 5797 5801 5805 5809
5840 5839 5837 5835 5833 5830 5828 5825 5822 5818 5815 5811 5807 5803 5799 5795 5791 5787 5783 5779 5776 5773 5771 5768 5767 5765 5764 5763 5763 5764 5765 5766 5768 5770 5772 5775 5779 5782 5785 5789 5793 5798 5802
5839 5838 5836 5834 5832 5829 5827 5824 5821 5818 5815 5811 5807 5803 5799 5795 5791 5788 5784 5780 5776 5773 5770 5768 5766 5764 5762 5761 5761 5761 5761 5762 5763 5765 5767 5769 5772 5775 5779 5782 5786 5790 5794
5838 5836 5835 5833 5831 5829 5826 5823 5820 5818 5814 5811 5807 5804 5800 5796 5792 5788 5784 5781 5777 5773 5770 5768 5765 5763 5761 5759 5758 5757 5757 5758 5758 5759 5761 5763 5766 5768 5771 5775 5778 5782 5787
5836 5835 5834 5832 5830 5827 5825 5822 5820 5817 5814 5811 5807 5804 5800 5796 5792 5789 5785 5781 5777 5774 5770 5767 5764 5761 5759 5757 5755 5754 5754 5754 5754 5754 5756 5757 5759 5761 5764 5767 5770 5774 5778
5835 5834 5832 5831 5829 5826 5824 5822 5819 5816 5813 5810 5807 5803 5800 5796 5792 5788 5784 5781 5777 5774 5770 5767 5763 5760 5758 5755 5753 5752 5750 5749 5749 5749 5750 5751 5753 5754 5756 5759 5762 5765 5770
5833 5832 5831 5829 5827 5825 5823 5821 5818 5816 5813 5810 5806 5803 5799 5796 5792 5788 5784 5781 5777 5773 5770 5766 5763 5759 5756 5754 5751 5749 5747 5746 5745 5744 5745 5745 5746 5747 5749 5751 5754 5757 5761
5832 5831 5830 5828 5826 5824 5822 5820 5817 5814 5812 5809 5805 5802 5799 5795 5791 5788 5784 5780 5777 5773 5769 5765 5762 5758 5755 5752 5749 5747 5744 5742 5740 5740 5740 5740 5740 5741 5742 5744 5746 5749 5752
5830 5829 5828 5826 5825 5823 5821 5818 5816 5813 5810 5807 5804 5801 5798 5794 5791 5787 5783 5780 5776 5772 5768 5764 5761 5757 5754 5751 5747 5744 5741 5738 5736 5735 5735 5735 5735 5736 5736 5737 5739 5742 5745
5827 5827 5826 5824 5823 5821 5819 5817 5814 5812 5809 5806 5803 5800 5796 5793 5789 5786 5782 5779 5775 5771 5767 5763 5760 5756 5752 5749 5745 5742 5738 5735 5733 5732 5731 5731 5731 5731 5732 5732 5734 5736 5738
5825 5824 5823 5822 5821 5819 5817 5815 5813 5810 5807 5804 5801 5798 5795 5791 5788 5784 5780 5777 5773 5770 5766 5762 5758 5754 5751 5747 5744 5740 5737 5733 5731 5730 5729 5728 5728 5728 5728 5728 5729 5730 5732
5822 5821 5820 5819 5818 5817 5815 5813 5811 5808 5805 5803 5799 5796 5793 5790 5786 5782 5779 5775 5772 5768 5765 5761 5757 5753 5749 5746 5742 5739 5735 5732 5730 5728 5727 5726 5726 5725 5724 5724 5725 5726 5727
5818 5818 5817 5816 5815 5814 5812 5810 5808 5806 5803 5800 5797 5794 5791 5788 5784 5780 5777 5773 5770 5766 5762 5759 5755 5752 5748 5744 5741 5737 5734 5732 5729 5727 5725 5724 5723 5722 5722 5721 5721 5722 5722
5815 5814 5814 5813 5812 5811 5809 5808 5805 5803 5801 5798 5795 5792 5789 5785 5782 5778 5774 5771 5767 5764 5760 5757 5753 5750 5746 5743 5740 5736 5733 5731 5728 5726 5724 5722 5721 5720 5719 5718 5718 5718 5718
5811 5810 5810 5809 5808 5807 5806 5804 5802 5800 5798 5795 5792 5789 5786 5782 5779 5775 5772 5768 5765 5761 5758 5755 5751 5748 5745 5741 5738 5735 5732 5729 5727 5725 5722 5721 5719 5717 5716 5716 5715 5714 5714
5806 5806 5805 5805 5804 5803 5802 5801 5799 5797 5794 5792 5789 5786 5783 5779 5776 5772 5769 5765 5762 5759 5755 5752 5749 5746 5742 5739 5736 5733 5730 5727 5725 5723 5721 5719 5717 5715 5714 5713 5712 5711 5710
5801 5801 5800 5800 5799 5799 5798 5796 5794 5793 5790 5788 5785 5782 5779 5775 5772 5769 5765 5762 5759 5755 5752 5749 5746 5743 5740 5736 5733 5731 5728 5725 5722 5720 5718 5716 5714 5712 5711 5709 5708 5707 5706
5795 5795 5795 5795 5794 5793 5793 5791 5790 5788 5786 5783 5781 5778 5775 5771 5768 5765 5761 5758 5755 5751 5748 5745 5742 5739 5736 5733 5730 5728 5725 5722 5720 5717 5715 5713 5711 5709 5707 5706 5704 5703 5702
5789 5789 5789 5789 5788 5788 5787 5786 5784 5783 5781 5778 5776 5773 5770 5767 5763 5760 5757 5754 5750 5747 5744 5741 5738 5735 5732 5730 5727 5724 5721 5719 5716 5714 5711 5709 5707 5705 5703 5701 5700 5698 5697
5782 5783 5783 5782 5782 5782 5781 5780 5779 5777 5775 5773 5770 5767 5765 5762 5758 5755 5752 5749 5745 5742 5739 5736 5733 5730 5728 5725 5722 5719 5717 5714 5712 5709 5707 5705 5703 5701 5698 5696 5695 5693 5692
5775 5775 5775 5775 5775 5775 5774 5773 5772 5770 5769 5766 5764 5761 5759 5756 5753 5750 5746 5743 5740 5737 5734 5731 5728 5725 5722 5720 5717 5714 5712 5709 5706 5704 5702 5699 5697 5695 5693 5691 5689 5687 5685
5767 5767 5768 5768 5768 5767 5767 5766 5765 5764 5762 5760 5758 5755 5752 5749 5746 5743 5740 5737 5734 5731 5728 5725 5722 5719 5717 5714 5711 5709 5706 5703 5701 5698 5696 5693 5691 5689 5686 5684 5682 5680 5678